�N����,����,�~����,�C��,���x,�C��,����,���ϕ���,�ő�u�ԕ���,�ő厞����,���˗�,�I�_���x,�n�����x,�ő啗���N��,DTYPE
"17/06/26","00:10",0.0,20.9,91.4,999.1,337.2,1.3,2.5,347.6,0.00,19.5,22.2,"00:03:04",1
"17/06/26","00:20",0.0,20.9,91.4,999.3,331.2,1.5,2.9,331.1,0.00,19.5,22.3,"00:10:02",1
"17/06/26","00:30",0.0,20.9,91.2,999.3,317.5,1.5,2.5,335.6,0.00,19.5,22.2,"00:20:08",1
"17/06/26","00:40",0.0,20.9,91.0,999.6,322.5,1.6,3.1,332.0,0.00,19.4,22.3,"00:35:52",1
"17/06/26","00:50",0.0,20.9,90.9,999.6,331.5,1.7,2.6,352.9,0.00,19.4,22.0,"00:48:00",1
"17/06/26","01:00",0.0,20.8,90.9,999.6,334.4,1.6,2.7,335.1,0.00,19.3,22.0,"00:55:44",1
"17/06/26","01:10",0.0,20.8,90.9,999.6,329.1,1.6,2.9,329.4,0.00,19.3,22.1,"01:02:48",1
"17/06/26","01:20",0.0,20.8,90.9,999.6,334.6,2.0,3.1,334.2,0.00,19.3,22.1,"01:14:48",1
"17/06/26","01:30",0.0,20.7,90.7,999.6,330.3,1.8,3.5,331.4,0.00,19.2,22.1,"01:26:56",1
"17/06/26","01:40",0.0,20.7,90.5,999.6,336.9,2.0,4.0,347.2,0.00,19.1,22.2,"01:34:24",1
"17/06/26","01:50",0.0,20.5,90.4,999.8,330.8,1.6,2.6,324.2,0.00,18.9,22.1,"01:44:56",1
"17/06/26","02:00",0.0,20.4,90.6,999.3,335.5,1.5,2.4,329.5,0.00,18.9,21.8,"01:55:36",1
"17/06/26","02:10",0.0,20.2,90.8,999.3,328.3,1.3,2.2,328.2,0.00,18.7,22.1,"02:02:32",1
"17/06/26","02:20",0.0,20.0,91.1,999.6,334.3,0.8,1.6,352.4,0.00,18.5,21.8,"02:11:28",1
"17/06/26","02:30",0.0,19.8,91.5,999.6,306.3,0.8,1.9,334.8,0.00,18.4,22.0,"02:22:48",1
"17/06/26","02:40",0.0,19.7,91.8,999.6,335.8,0.7,1.6,326.8,0.00,18.4,21.8,"02:33:44",1
"17/06/26","02:50",0.0,19.5,91.9,999.8,350.9,0.6,1.1,317.7,0.00,18.2,21.7,"02:46:40",1
"17/06/26","03:00",0.0,19.2,92.7,1000.0,332.6,0.8,1.3,338.7,0.00,18.0,22.0,"02:50:40",1
"17/06/26","03:10",0.0,19.0,93.2,1000.0,346.4,1.2,2.0,346.0,0.00,17.9,21.7,"03:06:40",1
"17/06/26","03:20",0.0,19.0,93.5,1000.0,344.4,1.0,1.7,347.1,0.00,18.0,21.7,"03:16:48",1
"17/06/26","03:30",0.0,18.8,93.8,999.8,327.1,0.8,1.7,348.1,0.00,17.8,21.7,"03:20:32",1
"17/06/26","03:40",0.0,18.8,93.9,1000.0,333.9,0.8,1.3,0.9,0.00,17.8,21.6,"03:31:04",1
"17/06/26","03:50",0.0,18.7,94.3,1000.8,329.9,1.0,1.4,332.4,0.00,17.8,21.5,"03:43:20",1
"17/06/26","04:00",0.0,18.7,94.5,1000.5,331.5,1.1,1.7,342.1,0.00,17.8,21.5,"03:56:48",1
"17/06/26","04:10",0.0,18.8,94.5,1000.3,340.3,1.6,2.2,327.6,0.00,17.9,21.6,"04:08:32",1
"17/06/26","04:20",0.0,18.9,94.3,1000.5,335.5,1.5,2.6,341.0,0.00,18.0,21.5,"04:12:48",1
"17/06/26","04:30",0.0,18.9,94.2,1000.5,335.6,1.8,2.7,336.8,0.00,18.0,21.3,"04:23:36",1
"17/06/26","04:40",0.0,18.9,94.2,1001.0,336.2,2.1,3.3,346.9,0.00,18.0,21.5,"04:34:08",1
"17/06/26","04:50",0.0,18.9,93.9,1001.0,334.4,2.0,4.1,347.1,0.00,17.9,21.3,"04:46:24",1
"17/06/26","05:00",0.0,19.0,93.7,1001.0,330.3,1.8,2.8,341.0,0.00,18.0,21.4,"04:53:44",1
"17/06/26","05:10",0.0,19.0,93.5,1001.2,336.3,1.7,2.8,328.8,0.00,18.0,21.3,"05:03:04",1
"17/06/26","05:20",0.0,19.0,93.4,1001.2,331.2,1.7,2.4,313.3,0.00,18.0,21.3,"05:12:00",1
"17/06/26","05:30",0.0,18.9,93.3,1001.5,332.9,1.6,2.6,331.6,0.00,17.8,21.2,"05:24:24",1
"17/06/26","05:40",0.0,18.8,93.3,1001.5,335.3,1.1,1.6,343.5,0.00,17.7,21.4,"05:30:24",1
"17/06/26","05:50",0.0,18.8,93.5,1001.2,345.4,1.1,2.0,343.1,0.01,17.8,21.2,"05:48:56",1
"17/06/26","06:00",0.0,18.9,93.7,1001.7,333.2,1.5,2.2,333.3,0.02,17.9,21.3,"05:54:08",1
"17/06/26","06:10",0.0,19.2,93.4,1001.7,345.8,0.6,1.2,31.4,0.03,18.1,21.2,"06:06:12",1
"17/06/26","06:20",0.0,19.5,93.1,1001.7,319.4,0.8,1.6,322.5,0.03,18.4,21.2,"06:17:12",1
"17/06/26","06:30",0.0,19.8,92.8,1001.9,325.4,1.0,2.1,345.7,0.04,18.6,21.1,"06:20:02",1
"17/06/26","06:40",0.0,19.8,92.2,1001.9,332.6,1.7,2.6,338.3,0.04,18.5,21.1,"06:35:20",1
"17/06/26","06:50",0.0,20.1,90.7,1001.9,323.3,1.7,2.9,330.2,0.07,18.6,21.2,"06:42:24",1
"17/06/26","07:00",0.0,20.6,88.0,1002.2,337.6,1.6,2.8,341.4,0.09,18.6,21.3,"06:52:40",1
"17/06/26","07:10",0.0,20.9,85.4,1002.2,321.8,1.3,2.5,332.2,0.09,18.4,21.4,"07:09:28",1
"17/06/26","07:20",0.0,21.0,83.8,1002.2,326.5,1.6,2.6,348.3,0.09,18.2,21.3,"07:16:48",1
"17/06/26","07:30",0.0,21.2,81.8,1002.4,300.3,1.1,2.4,326.5,0.10,18.0,21.4,"07:20:08",1
"17/06/26","07:40",0.0,22.1,81.0,1002.2,323.8,1.0,2.7,353.3,0.16,18.7,21.5,"07:30:02",1
"17/06/26","07:50",0.0,22.5,78.8,1002.4,308.5,1.2,3.2,342.6,0.23,18.7,21.6,"07:40:08",1
"17/06/26","08:00",0.0,22.4,78.3,1002.6,323.3,1.7,3.6,345.5,0.19,18.5,21.7,"07:58:48",1
"17/06/26","08:10",0.0,22.4,78.8,1002.4,313.6,1.1,2.1,323.0,0.14,18.6,21.8,"08:00:16",1
"17/06/26","08:20",0.0,22.4,78.6,1002.2,337.3,1.6,3.7,344.2,0.16,18.5,21.9,"08:17:52",1
"17/06/26","08:30",0.0,22.9,74.8,1001.9,325.2,2.0,5.1,341.7,0.23,18.2,22.2,"08:28:00",1
"17/06/26","08:40",0.0,23.6,74.4,1001.7,331.6,1.5,3.5,336.5,0.24,18.8,22.3,"08:30:08",1
"17/06/26","08:50",0.2,23.4,73.2,1001.7,321.1,2.0,4.0,342.6,0.28,18.4,22.2,"08:45:04",1
"17/06/26","09:00",0.0,24.3,70.1,1001.7,341.0,1.5,2.7,346.8,0.30,18.5,22.3,"08:54:24",1
"17/06/26","09:10",0.0,24.3,68.3,1001.2,334.1,2.0,4.2,339.2,0.32,18.1,22.4,"09:03:36",1
"17/06/26","09:20",0.0,24.7,67.4,1001.5,336.9,1.8,5.4,341.7,0.34,18.3,22.7,"09:10:40",1
"17/06/26","09:30",0.0,24.9,68.7,1001.0,343.4,2.0,4.5,339.2,0.31,18.8,22.9,"09:27:36",1
"17/06/26","09:40",0.0,25.0,67.3,1001.2,335.4,2.2,5.1,334.8,0.33,18.6,23.0,"09:31:20",1
"17/06/26","09:50",0.0,25.6,64.4,1001.0,332.5,1.6,4.3,334.6,0.39,18.4,23.2,"09:43:12",1
"17/06/26","10:00",0.0,26.1,65.2,1001.0,358.9,2.0,5.5,339.8,0.45,19.1,23.3,"09:50:56",1
"17/06/26","10:10",0.0,26.5,60.6,1001.0,357.0,1.3,3.6,340.6,0.49,18.3,23.6,"10:04:32",1
"17/06/26","10:20",0.0,26.7,59.3,1000.5,8.1,1.6,4.2,58.5,0.49,18.1,23.9,"10:11:44",1
"17/06/26","10:30",0.0,26.3,59.3,1000.5,328.6,2.1,4.2,336.0,0.48,17.8,24.1,"10:23:52",1
"17/06/26","10:40",0.0,26.3,60.8,1000.5,330.5,2.0,4.3,342.7,0.40,18.2,24.1,"10:36:08",1
"17/06/26","10:50",0.0,26.5,61.7,1000.5,307.5,1.6,4.7,330.6,0.36,18.6,24.4,"10:45:28",1
"17/06/26","11:00",0.0,26.6,58.3,1000.3,285.7,1.2,3.6,7.1,0.34,17.8,24.4,"10:59:36",1
"17/06/26","11:10",0.0,26.7,59.4,1000.3,338.6,1.5,3.1,346.8,0.33,18.2,24.7,"11:04:24",1
"17/06/26","11:20",0.0,27.4,57.3,1000.3,353.1,1.3,3.1,327.1,0.38,18.3,24.8,"11:12:00",1
"17/06/26","11:30",0.0,27.8,56.1,1000.5,341.1,1.1,2.9,329.0,0.38,18.3,24.7,"11:22:56",1
"17/06/26","11:40",0.0,27.2,57.3,1000.5,308.2,1.3,3.4,342.4,0.36,18.1,24.9,"11:30:48",1
"17/06/26","11:50",0.0,27.8,58.3,1000.3,318.5,1.8,4.8,343.1,0.48,18.9,25.1,"11:42:48",1
"17/06/26","12:00",0.0,27.5,55.8,1000.0,275.0,1.2,2.8,328.7,0.38,17.9,25.1,"11:52:48",1
"17/06/26","12:10",0.0,28.3,58.3,1000.5,175.1,0.6,1.9,198.6,0.40,19.4,25.5,"12:00:24",1
"17/06/26","12:20",0.0,28.3,57.4,1000.8,284.5,1.2,2.7,340.3,0.40,19.1,25.4,"12:18:48",1
"17/06/26","12:30",0.0,28.4,56.1,1000.8,316.4,1.3,3.1,330.9,0.41,18.8,25.7,"12:22:00",1
"17/06/26","12:40",0.0,28.4,54.8,1000.8,239.9,0.8,2.0,267.0,0.40,18.5,25.7,"12:32:00",1
"17/06/26","12:50",0.0,28.3,54.3,1000.5,177.2,1.2,2.8,161.2,0.39,18.2,25.9,"12:43:52",1
"17/06/26","13:00",0.0,29.2,52.8,1000.8,174.0,0.7,2.7,343.1,0.46,18.6,25.9,"12:59:52",1
"17/06/26","13:10",0.0,28.4,55.5,1000.5,335.2,1.7,3.5,332.7,0.37,18.7,26.0,"13:00:08",1
"17/06/26","13:20",0.0,28.6,57.3,1000.8,332.4,1.5,3.2,349.7,0.34,19.4,25.9,"13:19:20",1
"17/06/26","13:30",0.0,28.1,55.2,1000.5,348.8,1.6,2.9,349.1,0.29,18.3,26.1,"13:24:08",1
"17/06/26","13:40",0.0,28.9,54.2,1000.5,351.4,1.2,3.2,343.8,0.38,18.8,26.0,"13:30:08",1
"17/06/26","13:50",0.0,29.0,51.4,1000.3,346.6,1.6,3.2,348.1,0.44,18.0,26.1,"13:43:28",1
"17/06/26","14:00",0.0,29.0,51.7,1000.5,337.7,1.2,3.5,340.5,0.36,18.1,26.1,"13:51:28",1
"17/06/26","14:10",0.0,28.7,55.4,1000.5,335.3,1.7,4.3,337.6,0.32,18.9,26.2,"14:05:52",1
"17/06/26","14:20",0.0,28.7,55.8,999.8,330.4,1.5,3.3,333.7,0.29,19.0,26.1,"14:17:04",1
"17/06/26","14:30",0.0,28.6,53.1,999.6,318.3,1.3,3.2,353.8,0.27,18.2,26.1,"14:22:24",1
"17/06/26","14:40",0.0,28.5,55.1,999.8,345.8,1.3,3.6,332.1,0.21,18.7,26.1,"14:30:32",1
"17/06/26","14:50",0.0,28.4,53.4,999.8,339.1,1.2,2.7,2.2,0.23,18.1,26.2,"14:45:20",1
"17/06/26","15:00",0.0,28.4,56.6,999.8,348.0,2.0,3.3,5.4,0.27,19.0,26.2,"14:57:44",1
"17/06/26","15:10",0.0,28.5,54.4,999.6,351.3,1.6,4.7,349.6,0.27,18.5,26.2,"15:01:20",1
"17/06/26","15:20",0.0,28.4,56.7,999.8,345.9,1.8,3.3,350.2,0.26,19.0,26.1,"15:12:40",1
"17/06/26","15:30",0.0,28.4,53.7,999.8,344.3,2.0,3.5,329.8,0.26,18.2,26.3,"15:21:44",1
"17/06/26","15:40",0.0,28.2,54.3,999.8,336.5,2.1,4.2,341.7,0.26,18.1,26.2,"15:34:16",1
"17/06/26","15:50",0.0,27.9,55.1,999.6,334.7,1.7,3.2,348.0,0.18,18.1,26.1,"15:45:04",1
"17/06/26","16:00",0.0,28.1,56.4,999.6,333.6,1.6,2.9,343.3,0.19,18.7,26.2,"15:52:56",1
"17/06/26","16:10",0.0,28.6,54.0,999.6,330.9,1.3,3.1,347.3,0.25,18.4,26.3,"16:07:28",1
"17/06/26","16:20",0.0,27.9,57.7,999.3,316.5,1.2,4.0,345.4,0.11,18.8,26.1,"16:15:36",1
"17/06/26","16:30",0.0,27.9,57.4,999.3,309.1,1.0,3.1,332.0,0.08,18.8,26.1,"16:28:48",1
"17/06/26","16:40",0.0,27.6,56.9,999.3,323.1,1.7,4.2,336.9,0.08,18.3,26.1,"16:39:52",1
"17/06/26","16:50",0.0,27.3,59.3,999.8,305.4,1.5,3.5,349.0,0.07,18.7,26.0,"16:41:12",1
"17/06/26","17:00",0.0,26.9,58.9,1000.0,303.2,1.2,4.0,331.0,0.04,18.2,25.9,"16:59:36",1
"17/06/26","17:10",0.0,26.8,60.8,1000.3,311.0,1.3,3.7,339.8,0.05,18.6,26.0,"17:00:16",1
"17/06/26","17:20",0.0,26.5,57.1,999.8,323.2,1.6,2.8,329.9,0.05,17.4,25.7,"17:13:20",1
"17/06/26","17:30",0.0,26.6,58.9,1000.3,325.5,1.6,3.2,342.2,0.06,17.9,25.6,"17:28:48",1
"17/06/26","17:40",0.0,26.3,57.9,1000.3,321.4,2.3,4.0,337.1,0.05,17.4,25.7,"17:35:28",1
"17/06/26","17:50",0.0,26.1,59.2,1000.5,333.4,2.2,3.9,340.0,0.06,17.6,25.7,"17:41:04",1
"17/06/26","18:00",0.0,25.8,59.4,1000.5,348.0,1.3,2.8,350.2,0.03,17.3,25.5,"17:58:24",1
"17/06/26","18:10",0.0,25.6,61.7,1001.0,342.4,1.3,3.2,339.6,0.01,17.7,25.5,"18:01:44",1
"17/06/26","18:20",0.0,25.3,62.0,1001.0,343.2,1.5,3.1,338.1,0.00,17.5,25.2,"18:19:20",1
"17/06/26","18:30",0.0,25.0,62.4,1000.8,334.4,1.6,2.8,338.7,0.01,17.4,25.2,"18:25:04",1
"17/06/26","18:40",0.0,24.8,62.5,1000.8,343.3,1.8,3.9,341.4,0.00,17.2,25.1,"18:37:28",1
"17/06/26","18:50",0.0,24.7,62.7,1001.2,332.3,2.2,3.9,353.6,0.00,17.2,24.9,"18:46:16",1
"17/06/26","19:00",0.0,24.5,64.9,1001.2,317.0,1.5,2.9,333.1,0.00,17.5,24.8,"18:53:04",1
"17/06/26","19:10",0.0,24.1,65.0,1001.5,327.4,1.7,3.5,340.4,0.00,17.2,24.7,"19:09:36",1
"17/06/26","19:20",0.0,24.0,65.9,1001.5,333.6,2.0,3.7,343.6,0.00,17.3,24.7,"19:16:32",1
"17/06/26","19:30",0.0,23.8,66.7,1001.5,325.9,2.1,3.6,348.4,0.00,17.3,24.6,"19:21:28",1
"17/06/26","19:40",0.0,23.6,67.7,1001.9,319.7,2.3,3.6,330.7,0.00,17.3,24.3,"19:35:04",1
"17/06/26","19:50",0.0,23.5,68.6,1001.9,323.6,2.2,4.7,344.6,0.00,17.4,24.4,"19:40:24",1
"17/06/26","20:00",0.0,23.3,68.9,1002.4,323.9,2.2,3.6,339.4,0.00,17.3,24.4,"19:59:28",1
"17/06/26","20:10",0.0,23.2,68.6,1001.9,324.5,2.2,3.9,357.6,0.00,17.1,24.2,"20:04:08",1
"17/06/26","20:20",0.0,23.1,69.5,1002.2,328.3,1.8,2.6,327.6,0.00,17.3,24.0,"20:14:56",1
"17/06/26","20:30",0.0,22.9,71.8,1002.2,297.7,1.3,3.2,326.4,0.00,17.6,24.2,"20:20:32",1
"17/06/26","20:40",0.0,22.6,72.8,1002.4,310.5,1.6,3.2,323.2,0.00,17.5,24.1,"20:30:02",1
"17/06/26","20:50",0.0,22.6,73.5,1002.6,324.2,2.3,4.7,339.7,0.00,17.7,24.0,"20:47:20",1
"17/06/26","21:00",0.0,22.5,74.2,1002.6,328.6,2.2,3.4,330.4,0.00,17.7,23.9,"20:50:56",1
"17/06/26","21:10",0.0,22.4,74.6,1002.6,307.0,1.1,2.6,316.4,0.00,17.7,23.9,"21:08:16",1
"17/06/26","21:20",0.0,22.2,75.5,1002.6,329.4,2.1,3.6,328.0,0.00,17.7,23.6,"21:17:52",1
"17/06/26","21:30",0.0,22.0,76.0,1002.6,317.8,2.5,4.7,346.0,0.00,17.6,23.6,"21:21:44",1
"17/06/26","21:40",0.0,21.8,76.7,1002.9,283.3,1.3,2.0,272.7,0.00,17.6,23.6,"21:31:12",1
"17/06/26","21:50",0.0,21.7,77.2,1003.1,297.9,1.7,2.8,325.5,0.00,17.6,23.4,"21:45:52",1
"17/06/26","22:00",0.0,21.7,77.6,1002.9,323.3,2.2,3.7,329.3,0.00,17.7,23.6,"21:52:32",1
"17/06/26","22:10",0.0,21.8,77.5,1003.4,327.7,2.3,4.7,331.1,0.00,17.7,23.2,"22:00:32",1
"17/06/26","22:20",0.0,21.7,77.9,1003.4,327.2,2.1,3.3,322.5,0.00,17.7,23.4,"22:15:20",1
"17/06/26","22:30",0.0,21.5,78.1,1003.4,329.0,2.2,4.1,320.8,0.00,17.6,23.3,"22:26:16",1
"17/06/26","22:40",0.0,21.5,78.2,1003.4,328.3,2.5,5.0,343.9,0.00,17.6,23.3,"22:33:36",1
"17/06/26","22:50",0.0,21.4,78.8,1003.4,334.4,2.2,4.0,325.2,0.00,17.6,23.2,"22:40:16",1
"17/06/26","23:00",0.0,21.3,78.8,1003.6,335.7,2.7,4.4,347.0,0.00,17.5,23.2,"22:53:12",1
"17/06/26","23:10",0.0,21.3,77.9,1003.4,330.0,3.1,4.8,330.3,0.00,17.3,23.1,"23:05:04",1
"17/06/26","23:20",0.0,21.3,78.1,1003.4,322.6,2.2,4.2,345.6,0.00,17.4,23.0,"23:11:20",1
"17/06/26","23:30",0.0,21.1,78.1,1003.6,328.8,2.7,4.2,331.9,0.00,17.2,22.9,"23:27:52",1
"17/06/26","23:40",0.0,21.1,78.1,1003.6,328.7,2.8,4.9,330.4,0.00,17.2,23.0,"23:36:32",1
"17/06/26","23:50",0.0,21.0,78.4,1003.4,320.0,2.2,3.6,327.5,0.00,17.1,22.8,"23:43:12",1
"17/06/26","24:00",0.0,20.9,79.0,1003.6,327.5,2.5,3.7,320.8,0.00,17.2,22.8,"23:53:44",1
